Location: Unspecified
(38.7273°N, 77.0677°W)
Time: 00:34:02
(UTC-04:00)

ISS - Pass Details

Date: 01 July 2021
Orbit: 419 x 421 km, 51.6° (Epoch: 03 August)

Event Time Altitude Azimuth Distance (km) Brightness Sun altitude
Exits shadow 02:56:39 30° 78° (ENE) 773 -2.1 -23.5°
Drops below altitude 10° 02:58:38 10° 61° (ENE) 1,501 -0.2 -23.3°
Sets 03:00:46 0° 56° (NE) 2,367 1.1 -23.2°
